Location: 81360 Arifat, France
(43.7204°N, 2.3408°E)
Time: 00:45:50
(UTC+01:00)

Vanguard 2 Rocket - Visible Passes

Search period start: 06 December 2025 00:00
Search period end: 16 December 2025 00:00
Orbit: 554 x 3287 km, 32.9° (Epoch: 04 December)

Date Brightness Start Highest point End Pass type
(mag) Time Alt. Az. Time Alt. Az. Time Alt. Az.
09 Dec 11.7 07:02:25 10° SSE 07:09:09 13° SE 07:15:21 10° ESE visible
11 Dec 11.4 06:59:48 10° S 07:11:28 19° SE 07:21:48 10° ESE visible
12 Dec 11.6 05:59:13 10° SSE 06:05:21 12° SE 06:11:15 10° ESE visible
13 Dec 11.2 06:59:16 10° S 07:13:39 26° SE 07:26:20 10° E visible
14 Dec 11.3 05:56:14 10° S 06:07:24 18° SE 06:18:06 10° ESE visible
15 Dec 11.4 04:58:15 10° SE 05:01:26 11° SE 05:04:39 10° ESE visible
15 Dec 11.0 06:59:43 10° SSW 07:15:46 32° SSE 07:30:07 10° E visible
